Content
SEND FEEDBACK

Daily
Averages
Monthly
Summary
United States of America

BREWER, MAINE


Home > North America > United States > Maine
Elevation: 181 feet     Latitude: 44 38N     Longitude: 068 54W

WEATHER
 
SELECT A DAY
Number of Records: 165,708;   Date Range: 1/1/95 - 12/17/14
 
SHARE

PRINT THIS DATA

[ ← Previous Day ]
WEATHER ALMANAC - JANUARY 31, 2013
[ Next Day → ]
[ °C ]   °F
Weather ElementAverageHighLow
Temperature46.6 °F54 °F (9:53 am)28.9 °F (11:53 pm)
Dewpoint40.9 °F53.1 °F (9:53 am)8.1 °F (11:53 pm)
Humidity82.9 %100 % (1:53 am)41 % (11:53 pm)
Barometer29.07 in29.36 in (1:53 am)28.77 in (11:53 am)
Wind Speed19.3 mph33.4 mph (6:03 am)
Wind Gust54.1 mph (8:53 am)
Weather ElementAverage
Visibility5.9 mi
Wind DirectionSSW (215 °)

Weather ElementTotal
Precipitation0.70 in
Heating Degree Days23.6 (Base 65)
Averaged from 36 records on January 31, 2013
WEATHER CONDITIONS BREAKOUT
WIND DIRECTION BREAKOUT
WEATHER BY HOUR - JANUARY 31, 2013
[ °C ]   °F
Local TimeTemperatureDewpointHumidityBarometerVisibilityWind DirectionWind SpeedGust SpeedPrecipitationEventsConditions
1:53 AM52.0 °F52.0 °F100 %29.36 in3.0 miSouth (180°)13.8 mph23.0 mph0.01 inRainLight Rain
2:15 AM51.8 °F51.8 °F100 %29.35 in4.0 miSouth (180°)13.8 mph0.00 inRainLight Rain
2:53 AM52.0 °F52.0 °F100 %29.30 in7.0 miSSE (160°)11.5 mph20.7 mph0.00 inLight Drizzle
3:23 AM50.0 °F50.0 °F100 %29.28 in3.0 miSouth (170°)16.1 mph23.0 mph0.00 inLight Drizzle
3:34 AM50.0 °F50.0 °F100 %29.26 in2.0 miSouth (180°)19.6 mph24.2 mph0.00 inLight Drizzle
3:53 AM50.0 °F50.0 °F100 %29.24 in2.5 miSouth (170°)18.4 mph28.8 mph0.00 inRainLight Rain
4:53 AM51.1 °F51.1 °F100 %29.16 in3.0 miSouth (180°)26.5 mph40.3 mph0.06 inLight Drizzle
5:53 AM52.0 °F51.1 °F97 %29.11 in3.0 miSouth (190°)28.8 mph47.2 mph0.01 inLight Drizzle
6:03 AM51.8 °F51.8 °F100 %29.11 in3.0 miSouth (180°)33.4 mph48.3 mph0.00 inLight Drizzle
6:53 AM53.1 °F52.0 °F96 %29.05 in4.0 miSouth (180°)32.2 mph51.8 mph0.05 inOvercast
7:00 AM53.6 °F51.8 °F94 %29.04 in3.0 miSouth (190°)31.1 mph48.3 mphOvercast
7:53 AM53.1 °F52.0 °F96 %28.97 in3.0 miSouth (180°)26.5 mph38.0 mph0.09 inRainLight Rain
8:10 AM53.6 °F51.8 °F94 %28.95 in1.8 miSouth (180°)25.3 mph46.0 mph0.02 inRainLight Rain
8:12 AM53.6 °F51.8 °F94 %28.95 in2.5 miSouth (180°)28.8 mph40.3 mph0.03 inRainLight Rain
8:53 AM53.1 °F52.0 °F96 %28.92 in1.8 miSouth (190°)28.8 mph54.1 mph0.08 inOvercast
9:27 AM53.6 °F51.8 °F94 %28.91 in5.0 miSouth (180°)20.7 mph32.2 mph0.02 inOvercast
9:53 AM54.0 °F53.1 °F97 %28.87 in6.0 miSouth (170°)21.9 mph29.9 mph0.02 inRainLight Rain
10:11 AM53.6 °F51.8 °F94 %28.84 in8.0 miSouth (170°)24.2 mph38.0 mph0.01 inRainLight Rain
10:53 AM52.0 °F51.1 °F97 %28.82 in1.8 miSouth (180°)24.2 mph42.6 mph0.02 inOvercast
11:53 AM51.1 °F50.0 °F96 %28.77 in5.0 miSouth (180°)17.3 mph29.9 mph0.03 inOvercast
12:11 PM51.8 °F51.8 °F100 %28.82 in1.5 miSW (230°)21.9 mph32.2 mph0.01 inOvercast
12:18 PM46.4 °F44.6 °F93 %28.83 in2.5 miWest (280°)15.0 mph41.4 mph0.07 inRainRain
12:32 PM44.6 °F42.8 °F93 %28.85 in7.0 miWest (260°)11.5 mph20.7 mph0.08 inRainLight Rain
12:53 PM44.1 °F43.0 °F96 %28.86 in10.0 miWest (280°)10.4 mph0.09 inRainLight Rain
1:42 PM44.6 °F37.4 °F76 %28.94 in10.0 miWest (260°)16.1 mph26.5 mph0.00 inScattered Clouds
1:53 PM45.0 °F36.0 °F71 %28.94 in10.0 miWest (280°)15.0 mph27.6 mph0.00 inScattered Clouds
2:53 PM41.0 °F32.0 °F70 %29.00 in10.0 miWSW (250°)15.0 mph28.8 mph0.00 inMostly Cloudy
3:53 PM42.1 °F26.1 °F53 %29.05 in10.0 miWSW (240°)12.7 mph25.3 mphScattered Clouds
4:53 PM39.0 °F24.1 °F55 %29.10 in10.0 miWest (270°)13.8 mph23.0 mphMostly Cloudy
5:53 PM37.9 °F21.0 °F51 %29.15 in10.0 miWest (270°)16.1 mph29.9 mphMostly Cloudy
6:53 PM36.0 °F21.0 °F55 %29.20 in10.0 miWSW (250°)10.4 mph21.9 mphMostly Cloudy
7:53 PM35.1 °F16.0 °F46 %29.22 in10.0 miWSW (240°)16.1 mph26.5 mphMostly Cloudy
8:53 PM33.1 °F16.0 °F50 %29.25 in10.0 miWest (260°)9.2 mph24.2 mphMostly Cloudy
9:53 PM32.0 °F14.0 °F48 %29.28 in10.0 miWSW (250°)17.3 mph29.9 mphMostly Cloudy
10:53 PM30.9 °F10.9 °F43 %29.32 in10.0 miWest (280°)15.0 mph32.2 mphOvercast
11:53 PM28.9 °F8.1 °F41 %29.36 in10.0 miWest (270°)15.0 mph27.6 mphScattered Clouds
Hourly data recorded from KBGR, located miles away from Brewer, Maine







STORIES FROM OUR PARTNERS